| time (UTC) | temp F | wind direction | speed MPH | gust MPH | rain 1hr in | rain 24hr in | rain mn in | humidity % | barometer mb |
| 20260505081004 | 50 | 212 | 3.0 | 8.0 | 0.00 | 0.00 | 0.00 | 89 | 1099.8 |
| 20260505080504 | 50 | 209 | 2.0 | 7.0 | 0.00 | 0.00 | 0.00 | 89 | 1099.8 |
| 20260505080004 | 50 | 199 | 1.0 | 5.0 | 0.00 | 0.00 | 0.00 | 89 | 1099.8 |
| 20260505075504 | 50 | 191 | 2.0 | 13.0 | 0.00 | 0.00 | 0.00 | 89 | 1099.8 |
| 20260505075005 | 50 | 225 | 2.0 | 5.0 | 0.00 | 0.00 | 0.00 | 89 | 1099.8 |
| 20260505074504 | 50 | 225 | 1.0 | 3.0 | 0.00 | 0.00 | 0.00 | 89 | 1099.8 |
| 20260505074004 | 49 | 225 | 2.0 | 7.0 | 0.00 | 0.00 | 0.00 | 89 | 1099.8 |
| 20260505073504 | 49 | 225 | 1.0 | 7.0 | 0.00 | 0.00 | 0.00 | 88 | 1099.8 |
| 20260505073004 | 49 | 225 | 0.0 | 5.0 | 0.00 | 0.00 | 0.00 | 88 | 1099.8 |
| 20260505072505 | 49 | 225 | 2.0 | 5.0 | 0.00 | 0.00 | 0.00 | 88 | 1099.8 |
| 20260505072004 | 49 | 225 | 2.0 | 7.0 | 0.00 | 0.00 | 0.00 | 88 | 1099.8 |
| 20260505071504 | 49 | 225 | 2.0 | 7.0 | 0.00 | 0.00 | 0.00 | 88 | 1099.8 |
| 20260505071005 | 49 | 225 | 3.0 | 8.0 | 0.00 | 0.00 | 0.00 | 88 | 1099.8 |
| 20260505070504 | 50 | 225 | 2.0 | 6.0 | 0.00 | 0.00 | 0.00 | 88 | 1099.8 |
| 20260505065504 | 50 | 225 | 4.0 | 6.0 | 0.00 | 0.00 | 0.00 | 88 | 1099.8 |
| 20260505065005 | 50 | 225 | 1.0 | 3.0 | 0.00 | 0.00 | 0.00 | 88 | 1099.8 |
| 20260505064504 | 50 | 225 | 1.0 | 5.0 | 0.00 | 0.00 | 0.00 | 88 | 1099.8 |
| 20260505064005 | 50 | 225 | 1.0 | 5.0 | 0.00 | 0.00 | 0.00 | 88 | 1099.8 |
| 20260505063505 | 50 | 225 | 3.0 | 8.0 | 0.00 | 0.00 | 0.00 | 88 | 1099.8 |
| 20260505063004 | 50 | 225 | 1.0 | 3.0 | 0.00 | 0.00 | 0.00 | 88 | 1099.8 |
| 20260505062505 | 50 | 225 | 1.0 | 5.0 | 0.00 | 0.00 | 0.00 | 88 | 1099.8 |
| 20260505062004 | 50 | 225 | 1.0 | 3.0 | 0.00 | 0.00 | 0.00 | 88 | 1099.8 |
| 20260505061504 | 50 | 225 | 2.0 | 3.0 | 0.00 | 0.00 | 0.00 | 88 | 1099.8 |
| 20260505061005 | 50 | 225 | 2.0 | 7.0 | 0.00 | 0.00 | 0.00 | 87 | 1099.8 |
| 20260505060505 | 50 | 225 | 3.0 | 6.0 | 0.00 | 0.00 | 0.00 | 87 | 1099.8 |
| 20260505060005 | 50 | 225 | 0.0 | 3.0 | 0.00 | 0.00 | 0.00 | 87 | 1099.8 |
| 20260505055505 | 50 | 225 | 2.0 | 6.0 | 0.00 | 0.00 | 0.00 | 87 | 1099.8 |
| 20260505055004 | 50 | 225 | 1.0 | 7.0 | 0.00 | 0.00 | 0.00 | 87 | 1099.8 |
| 20260505054505 | 50 | 225 | 1.0 | 6.0 | 0.00 | 0.00 | 0.00 | 87 | 1099.8 |
| 20260505054004 | 50 | 225 | 1.0 | 3.0 | 0.00 | 0.00 | 0.00 | 87 | 1099.8 |
| 20260505053505 | 50 | 225 | 1.0 | 3.0 | 0.00 | 0.00 | 0.00 | 86 | 1099.8 |
| 20260505052505 | 50 | 225 | 1.0 | 9.0 | 0.00 | 0.00 | 0.00 | 86 | 1099.8 |
| 20260505052004 | 50 | 225 | 1.0 | 9.0 | 0.00 | 0.00 | 0.00 | 86 | 1099.8 |
| 20260505051504 | 50 | 225 | 2.0 | 8.0 | 0.00 | 0.00 | 0.00 | 86 | 1099.8 |
| 20260505051004 | 50 | 225 | 0.0 | 7.0 | 0.00 | 0.00 | 0.00 | 86 | 1099.8 |
| 20260505050504 | 50 | 225 | 1.0 | 8.0 | 0.00 | 0.00 | 0.00 | 86 | 1099.8 |
| 20260505041504 | 51 | 214 | 3.0 | 9.0 | 0.00 | 0.00 | 0.00 | 85 | 1099.8 |
| 20260505041005 | 51 | 209 | 3.0 | 12.0 | 0.00 | 0.00 | 0.00 | 85 | 1099.8 |
| 20260505040504 | 51 | 189 | 2.0 | 10.0 | 0.00 | 0.00 | 0.00 | 84 | 1099.8 |
| 20260505040005 | 51 | 184 | 3.0 | 7.0 | 0.00 | 0.00 | 0.00 | 84 | 1099.8 |
| 20260505035504 | 51 | 172 | 3.0 | 9.0 | 0.00 | 0.00 | 0.00 | 84 | 1099.8 |
| 20260505035004 | 51 | 212 | 4.0 | 8.0 | 0.00 | 0.00 | 0.00 | 84 | 1099.8 |
| 20260505034504 | 51 | 218 | 1.0 | 7.0 | 0.00 | 0.00 | 0.00 | 84 | 1099.8 |
| 20260505034004 | 51 | 219 | 2.0 | 7.0 | 0.00 | 0.00 | 0.00 | 83 | 1099.8 |
| 20260505033505 | 51 | 206 | 3.0 | 9.0 | 0.00 | 0.00 | 0.00 | 83 | 1099.8 |
| 20260505033005 | 51 | 209 | 5.0 | 9.0 | 0.00 | 0.00 | 0.00 | 83 | 1099.8 |
| 20260505032504 | 51 | 213 | 2.0 | 12.0 | 0.00 | 0.00 | 0.00 | 83 | 1099.8 |
| 20260505032004 | 51 | 225 | 1.0 | 5.0 | 0.00 | 0.00 | 0.00 | 82 | 1099.8 |
| 20260505031504 | 51 | 225 | 2.0 | 7.0 | 0.00 | 0.00 | 0.00 | 82 | 1099.8 |
| 20260505031005 | 51 | 219 | 3.0 | 7.0 | 0.00 | 0.00 | 0.00 | 82 | 1099.8 |
| 20260505030504 | 51 | 214 | 3.0 | 7.0 | 0.00 | 0.00 | 0.00 | 81 | 1099.8 |
| 20260505030004 | 51 | 192 | 2.0 | 8.0 | 0.00 | 0.00 | 0.00 | 81 | 1099.8 |
| 20260505025004 | 52 | 223 | 2.0 | 6.0 | 0.00 | 0.00 | 0.00 | 80 | 1099.8 |
| 20260505024004 | 52 | 225 | 4.0 | 12.0 | 0.00 | 0.00 | 0.00 | 79 | 1099.8 |
| 20260505023504 | 52 | 229 | 3.0 | 7.0 | 0.00 | 0.00 | 0.00 | 79 | 1099.8 |
| 20260505023005 | 52 | 229 | 4.0 | 14.0 | 0.00 | 0.00 | 0.00 | 79 | 1099.8 |
| 20260505022504 | 52 | 224 | 3.0 | 7.0 | 0.00 | 0.00 | 0.00 | 79 | 1099.8 |
| 20260505022005 | 52 | 218 | 4.0 | 7.0 | 0.00 | 0.00 | 0.00 | 78 | 1099.8 |
| 20260505021005 | 52 | 208 | 2.0 | 8.0 | 0.00 | 0.00 | 0.00 | 78 | 1099.8 |
| 20260505020505 | 52 | 219 | 2.0 | 7.0 | 0.00 | 0.00 | 0.00 | 77 | 1099.8 |
| 20260505020004 | 53 | 224 | 3.0 | 10.0 | 0.00 | 0.00 | 0.00 | 77 | 1099.8 |
| 20260505015005 | 53 | 225 | 2.0 | 9.0 | 0.00 | 0.00 | 0.00 | 77 | 1099.8 |
| 20260505014505 | 53 | 217 | 4.0 | 14.0 | 0.00 | 0.00 | 0.00 | 76 | 1099.8 |
| 20260505014004 | 53 | 210 | 2.0 | 14.0 | 0.00 | 0.00 | 0.00 | 76 | 1099.8 |
| 20260505013004 | 53 | 226 | 3.0 | 9.0 | 0.00 | 0.00 | 0.00 | 75 | 1099.8 |
| 20260505012506 | 53 | 236 | 6.0 | 14.0 | 0.00 | 0.00 | 0.00 | 75 | 1099.8 |
| 20260505010504 | 53 | 227 | 5.0 | 14.0 | 0.00 | 0.00 | 0.00 | 73 | 1099.8 |
| 20260505010005 | 53 | 210 | 5.0 | 12.0 | 0.00 | 0.00 | 0.00 | 72 | 1099.8 |
| 20260505005505 | 53 | 240 | 5.0 | 10.0 | 0.00 | 0.00 | 0.00 | 72 | 1099.8 |
| 20260505005005 | 54 | 240 | 3.0 | 13.0 | 0.00 | 0.00 | 0.00 | 71 | 1099.8 |
| 20260505004504 | 54 | 237 | 6.0 | 15.0 | 0.00 | 0.00 | 0.00 | 71 | 1099.8 |
| 20260505004004 | 54 | 216 | 6.0 | 15.0 | 0.00 | 0.00 | 0.00 | 70 | 1099.8 |
| 20260505003506 | 54 | 253 | 5.0 | 9.0 | 0.00 | 0.00 | 0.00 | 70 | 1099.8 |
| 20260505003004 | 54 | 253 | 3.0 | 9.0 | 0.00 | 0.00 | 0.00 | 70 | 1099.8 |
| 20260505002504 | 54 | 244 | 5.0 | 10.0 | 0.00 | 0.00 | 0.00 | 70 | 1099.8 |
| 20260505002004 | 54 | 244 | 3.0 | 12.0 | 0.00 | 0.00 | 0.00 | 70 | 1099.8 |
| 20260505001504 | 54 | 227 | 3.0 | 12.0 | 0.00 | 0.00 | 0.00 | 70 | 1099.8 |
| 20260505001004 | 54 | 223 | 3.0 | 9.0 | 0.00 | 0.00 | 0.00 | 70 | 1099.8 |
| 20260505000505 | 54 | 189 | 5.0 | 14.0 | 0.00 | 0.00 | 0.00 | 70 | 1099.8 |
| 20260505000004 | 54 | 225 | 4.0 | 15.0 | 0.00 | 0.00 | 0.00 | 70 | 1099.8 |
| 20260504235504 | 54 | 215 | 4.0 | 9.0 | 0.00 | 0.00 | 0.00 | 70 | 1099.8 |
| 20260504235004 | 55 | 220 | 6.0 | 12.0 | 0.00 | 0.00 | 0.00 | 69 | 1099.8 |
| 20260504234504 | 55 | 232 | 5.0 | 15.0 | 0.00 | 0.00 | 0.00 | 69 | 1099.8 |
| 20260504234005 | 55 | 211 | 5.0 | 14.0 | 0.00 | 0.00 | 0.00 | 69 | 1099.8 |
| 20260504233503 | 55 | 265 | 6.0 | 12.0 | 0.00 | 0.00 | 0.00 | 69 | 1099.8 |
| 20260504233004 | 55 | 232 | 5.0 | 12.0 | 0.00 | 0.00 | 0.00 | 69 | 1099.8 |
| 20260504232504 | 55 | 218 | 5.0 | 16.0 | 0.00 | 0.00 | 0.00 | 68 | 1099.8 |
| 20260504232005 | 55 | 196 | 4.0 | 13.0 | 0.00 | 0.00 | 0.00 | 68 | 1099.8 |
| 20260504231504 | 55 | 226 | 5.0 | 12.0 | 0.00 | 0.00 | 0.00 | 68 | 1099.8 |
| 20260504231004 | 55 | 203 | 5.0 | 10.0 | 0.00 | 0.00 | 0.00 | 68 | 1099.8 |
| 20260504230504 | 55 | 222 | 5.0 | 13.0 | 0.00 | 0.00 | 0.00 | 68 | 1099.8 |
| 20260504230005 | 56 | 211 | 6.0 | 14.0 | 0.00 | 0.00 | 0.00 | 67 | 1099.8 |
| 20260504225504 | 56 | 240 | 5.0 | 14.0 | 0.00 | 0.00 | 0.00 | 67 | 1099.8 |
| 20260504225004 | 56 | 225 | 7.0 | 16.0 | 0.00 | 0.00 | 0.00 | 67 | 1099.8 |
| 20260504224504 | 56 | 224 | 8.0 | 18.0 | 0.00 | 0.00 | 0.00 | 67 | 1099.8 |
| 20260504224004 | 56 | 209 | 6.0 | 20.0 | 0.00 | 0.00 | 0.00 | 66 | 1099.8 |
| 20260504222505 | 57 | 234 | 6.0 | 12.0 | 0.00 | 0.00 | 0.00 | 66 | 1099.8 |
| 20260504222004 | 57 | 231 | 7.0 | 14.0 | 0.00 | 0.00 | 0.00 | 65 | 1099.8 |
| 20260504221006 | 58 | 229 | 3.0 | 10.0 | 0.00 | 0.00 | 0.00 | 64 | 1099.8 |
| 20260504220504 | 58 | 230 | 6.0 | 12.0 | 0.00 | 0.00 | 0.00 | 63 | 1099.8 |
| 20260504220005 | 58 | 193 | 7.0 | 16.0 | 0.00 | 0.00 | 0.00 | 62 | 1099.8 |
| 20260504215004 | 59 | 227 | 6.0 | 25.0 | 0.00 | 0.00 | 0.00 | 61 | 1099.8 |
| 20260504214504 | 59 | 182 | 8.0 | 18.0 | 0.00 | 0.00 | 0.00 | 61 | 1099.8 |
| 20260504213505 | 59 | 213 | 7.0 | 15.0 | 0.00 | 0.00 | 0.00 | 61 | 1099.8 |
| 20260504213005 | 60 | 211 | 9.0 | 16.0 | 0.00 | 0.00 | 0.00 | 60 | 1099.8 |
| 20260504212004 | 60 | 218 | 5.0 | 13.0 | 0.00 | 0.00 | 0.00 | 60 | 1099.8 |
| 20260504211504 | 61 | 210 | 7.0 | 18.0 | 0.00 | 0.00 | 0.00 | 59 | 1099.8 |
| 20260504211004 | 61 | 199 | 7.0 | 20.0 | 0.00 | 0.00 | 0.00 | 59 | 1099.8 |
| 20260504210504 | 60 | 192 | 6.0 | 14.0 | 0.00 | 0.00 | 0.00 | 62 | 1099.8 |
| 20260504210004 | 60 | 208 | 6.0 | 21.0 | 0.00 | 0.00 | 0.00 | 62 | 1099.8 |
| 20260504205504 | 61 | 183 | 6.0 | 21.0 | 0.00 | 0.00 | 0.00 | 60 | 1099.8 |
| 20260504205005 | 61 | 217 | 7.0 | 21.0 | 0.00 | 0.00 | 0.00 | 59 | 1099.8 |
| 20260504204004 | 61 | 239 | 6.0 | 21.0 | 0.00 | 0.00 | 0.00 | 57 | 1099.8 |
| 20260504202504 | 63 | 212 | 7.0 | 25.0 | 0.00 | 0.00 | 0.00 | 51 | 1099.8 |
| 20260504202004 | 63 | 230 | 9.0 | 21.0 | 0.00 | 0.00 | 0.00 | 48 | 1099.8 |
| 20260504201504 | 64 | 229 | 6.0 | 18.0 | 0.00 | 0.00 | 0.00 | 46 | 1099.8 |
| 20260504201005 | 64 | 238 | 7.0 | 20.0 | 0.00 | 0.00 | 0.00 | 47 | 1099.8 |
| 20260504200504 | 64 | 214 | 9.0 | 20.0 | 0.00 | 0.00 | 0.00 | 45 | 1099.8 |
| 20260504200005 | 64 | 216 | 6.0 | 20.0 | 0.00 | 0.00 | 0.00 | 46 | 1099.8 |
| 20260504195504 | 64 | 224 | 7.0 | 24.0 | 0.00 | 0.00 | 0.00 | 45 | 1099.8 |
| 20260504194505 | 64 | 228 | 7.0 | 20.0 | 0.00 | 0.00 | 0.00 | 47 | 1099.8 |
| 20260504194004 | 64 | 203 | 10.0 | 20.0 | 0.00 | 0.00 | 0.00 | 45 | 1099.8 |
| 20260504193005 | 65 | 244 | 8.0 | 35.0 | 0.00 | 0.00 | 0.00 | 45 | 1099.8 |
| 20260504192504 | 65 | 216 | 10.0 | 22.0 | 0.00 | 0.00 | 0.00 | 44 | 1099.8 |
| 20260504192004 | 65 | 213 | 7.0 | 21.0 | 0.00 | 0.00 | 0.00 | 46 | 1099.8 |
| 20260504191504 | 65 | 197 | 6.0 | 20.0 | 0.00 | 0.00 | 0.00 | 48 | 1099.8 |
| 20260504191004 | 65 | 218 | 7.0 | 20.0 | 0.00 | 0.00 | 0.00 | 48 | 1099.8 |
| 20260504190504 | 65 | 224 | 6.0 | 15.0 | 0.00 | 0.00 | 0.00 | 47 | 1099.8 |
| 20260504190004 | 65 | 249 | 6.0 | 13.0 | 0.00 | 0.00 | 0.00 | 51 | 1099.8 |
| 20260504185504 | 65 | 206 | 9.0 | 25.0 | 0.00 | 0.00 | 0.00 | 50 | 1099.8 |
| 20260504185005 | 65 | 192 | 8.0 | 15.0 | 0.00 | 0.00 | 0.00 | 54 | 1099.8 |
| 20260504183504 | 65 | 232 | 6.0 | 16.0 | 0.00 | 0.00 | 0.00 | 54 | 1099.8 |
| 20260504183004 | 66 | 238 | 3.0 | 12.0 | 0.00 | 0.00 | 0.00 | 56 | 1099.8 |
| 20260504182005 | 64 | 225 | 6.0 | 16.0 | 0.00 | 0.00 | 0.00 | 56 | 1099.8 |
| 20260504181504 | 64 | 205 | 6.0 | 16.0 | 0.00 | 0.00 | 0.00 | 58 | 1099.8 |
| 20260504181004 | 63 | 210 | 8.0 | 14.0 | 0.00 | 0.00 | 0.00 | 58 | 1099.8 |
| 20260504180505 | 64 | 221 | 6.0 | 12.0 | 0.00 | 0.00 | 0.00 | 58 | 1099.8 |
| 20260504180004 | 64 | 233 | 7.0 | 15.0 | 0.00 | 0.00 | 0.00 | 55 | 1099.8 |
| 20260504175005 | 64 | 203 | 7.0 | 16.0 | 0.00 | 0.00 | 0.00 | 53 | 1099.8 |
| 20260504174504 | 65 | 215 | 6.0 | 20.0 | 0.00 | 0.00 | 0.00 | 53 | 1099.8 |
| 20260504174005 | 64 | 217 | 9.0 | 25.0 | 0.00 | 0.00 | 0.00 | 52 | 1099.8 |
| 20260504173505 | 64 | 199 | 8.0 | 20.0 | 0.00 | 0.00 | 0.00 | 53 | 1099.8 |
| 20260504173005 | 64 | 227 | 7.0 | 21.0 | 0.00 | 0.00 | 0.00 | 54 | 1099.8 |
| 20260504172504 | 64 | 208 | 9.0 | 20.0 | 0.00 | 0.00 | 0.00 | 52 | 1099.8 |
| 20260504172005 | 65 | 236 | 7.0 | 16.0 | 0.00 | 0.00 | 0.00 | 51 | 1099.8 |
| 20260504171505 | 65 | 249 | 7.0 | 18.0 | 0.00 | 0.00 | 0.00 | 49 | 1099.8 |
| 20260504171005 | 66 | 185 | 5.0 | 20.0 | 0.00 | 0.00 | 0.00 | 48 | 1099.8 |
| 20260504170504 | 67 | 220 | 9.0 | 20.0 | 0.00 | 0.00 | 0.00 | 42 | 1099.8 |
| 20260504151004 | 63 | 229 | 6.0 | 12.0 | 0.00 | 0.00 | 0.00 | 60 | 1099.8 |
| 20260504141004 | 64 | 224 | 7.0 | 20.0 | 0.00 | 0.00 | 0.00 | 42 | 1099.8 |
| 20260504140504 | 64 | 253 | 5.0 | 10.0 | 0.00 | 0.00 | 0.00 | 43 | 1099.8 |
| 20260504130504 | 59 | 256 | 3.0 | 8.0 | 0.00 | 0.00 | 0.00 | 50 | 1099.8 |
| 20260504110504 | 47 | 244 | 1.0 | 6.0 | 0.00 | 0.00 | 0.00 | 73 | 1099.8 |
| 20260504100504 | 43 | 244 | 0.0 | 0.0 | 0.00 | 0.00 | 0.00 | 77 | 1099.8 |
| 20260504082005 | 43 | 244 | 0.0 | 0.0 | 0.00 | 0.00 | 0.00 | 77 | 1099.8 |
| 20260504081505 | 43 | 244 | 0.0 | 0.0 | 0.00 | 0.00 | 0.00 | 78 | 1099.8 |